{"data":{"norad_id":63815,"intl_designator":"2025-092M","name":"STARLINK-34060","alt_names":[],"object_type":"PAYLOAD","status":"ACTIVE","operator":null,"country":"US","launch_date":"2025-05-04","launch_site_code":"AFETR","launch_vehicle":null,"mission":null,"orbit_class":"UNKNOWN","rcs_meters":null,"size_class":null,"mass_kg":null,"dimensions":null,"purposes":["comms"],"wikipedia_slug":null,"has_3d_model":false,"image_url":null,"decayed_at":null,"tle_current":{"epoch":"2026-09-20T23:19:14.952576Z","epoch_age_seconds":109162,"freshness":"FRESH","line1":"1 63815U 25092M   26263.97170084  .00011683  00000+0  43317-3 0  9995","line2":"2 63815  42.9987 149.4186 0000914 261.2020  98.8728 15.27598387 78422","mean_motion":15.27598387,"eccentricity":9.14e-5,"inclination_deg":42.9987,"raan_deg":149.4186,"arg_perigee_deg":261.202,"mean_anomaly_deg":98.8728,"bstar":0.00043317,"rev_number":7842,"period_min":94.265614068104,"perigee_km":482.36693192222,"apogee_km":483.62114667621,"semimajor_km":6861.1310392992,"source":"CELESTRAK","updated_at":"2026-09-21T09:00:35.105965Z"}}}